Tracking 30703 objects as of 13-Jun-2025
HD Live streaming from Space Station
objects crossing your sky now

CZ-4B DEB

Track CZ-4B DEB now!
10-day predictions


NORAD ID: 38310
Int'l Code: 2011-079D
Perigee: 630.8 km
Apogee: 778.1 km
Inclination: 98.7 °
Period: 98.7 minutes
Semi major axis: 7075 km
RCS: 0.0012 m2 (small)
Launch date: December 22, 2011
Source: People's Republic of China (PRC)
Launch site: Taiyaun Space Center, China (TSC)

Note: This is SATELLITE DEBRIS
Your satellite tracking list
Your tracking list is empty




NASA's NSSDC Master Catalog

Two Line Element Set (TLE):
1 38310U 11079D   25162.76340365  .00001693  00000-0  34812-3 0  9993
2 38310  98.6772  89.7098 0104096 249.0003 139.1585 14.58708239708414
Source of the keplerian elements: AFSPC